Погода в Глебове

Россия / Костромская область     57°55′33″N   41°41′26″E
темп.,
°C
ветер,
м/с
пор.,
м/с
влажн.,
%
обл.,
%
осадки,
мм/ч
давл.,
гПа
погр.,
м
28 января, чт
чт2800:00−3ююз3109497 0.0 1008351
03:00−6ююз239798 0.0 100840
06:00−7ююз129766 0.0 100921
09:00−7юв129679 0.0 100921
12:00−3вюв2391100 0.0 1009183
15:00−1в3597100 0.6 1008244
18:00+1вюв3799100 0.7 1008248
21:00−2юв3897100 1.1 1007400
29 января, пт
пт2900:00−2юв489699 0.3 1007463
03:00−4юв3895100 0.4 1006348
06:00−4юв4995100 0.1 1005367
09:00−5юв51095100 0.9 1004377
12:00−5юв5995100 1.1 1002409
15:00−4юв4995100 1.7 1001427
18:00−4юв4109499 0.1 1001438
21:00−2юв4109499 0.3 999735
30 января, сб
сб3000:00−2ююв41088100 0.3 998687
03:00−3ююв41092100 0.4 997669
06:00−3ююв4993100 0.1 996630
09:00−5ююв3109599 0.3 995455
12:00−3ююв4893100 0.5 996600
15:00−3ю3792100 0.8 995614
18:00−5ююв3996100 0.2 996355
21:00−7ююз4109481 0.2 997424
31 января, вс
вс3100:00−7ю41094100 0.1 998545
03:00−7ю41093100 0.3 999514
06:00−7ююв41095100 0.1 997382
09:00−6юв41095100 0.8 995539
12:00−4вюв4995100 0.8 993502
15:00−3в4897100 2.8 989379
18:000ююв3798100 2.2 987444
21:00−1ююв1399100 3.3 987121
1 февраля, пн
пн100:00−5зсз51194100 0.7 990504
03:00−6з51292100 1.1 995626
06:00−10зюз51294100 0.1 999398
09:00−9зюз41293100 0.1 1003524
12:00−6юз51090100 0.1 1006638
15:00−6юз5990100 0.3 1008692
18:00−9ююз3896100 0.1 1009256
21:00−10ю379798 0.1 1010195